Hlavní strana
METAR-TAF:

METAR-TAF

Letiště :

Washington, Indiana, Spojené státy americké

zeměpisná šířka: 38-42-02N, zeměpisná délka: 087-07-47W, výška: 144 m

Aktuální stav počasí

Zpráva byla vytvořena před 27 minutami, v 02:35 UTC
Jižní vítr 5 kt
Teplota -2°C
Vlhkost vzduchu 69%
Tlak 1034 hPa
Viditelnost: 16.1 km
Jasno

METAR: KDCY 220235Z AUTO 19005KT 10SM CLR M02/M07 A3052 RMK AO2 T10221075

Čas: 22:02 (03:02 UTC)


TAF: chybějící

Stav a předpovědi počasí z více než 4 000 letišť (zprávy METAR a TAF).

Červené a žluté tečky na mapě představují dostupné meteorologické stanice.

Když kurzor umístíte na tečku, zobrazí se název stanice.

Pak kliknutím zobrazíte stav a předpověď počasí.

Chcete-li změnit mapu, kliknutím na zelené tlačítko se znaménkem +mapu přiblížíte, kliknutím na zelené tlačítko se znaménkem – mapu oddálíte a kliknutím na zelené šipky přejdete na sousední mapy.


METAR-TAF: